Tracking 18033 objects as of 23-March-2017
HD Live streaming from Space Station
objects crossing your sky now

COSMOS 1974

Track COSMOS 1974 now!
COSMOS 1974 is classified as:


NORAD ID: 19554
Int'l Code: 1988-092A
Perigee: 5,733.3 km
Apogee: 34,621.4 km
Inclination: 69.8 °
Period: 717.5 minutes
Semi major axis: 26548 km
RCS: 16.1296 m2 (large)
Launch date: October 3, 1988
Source: Commonwealth of Independent States (former USSR) (CIS)
Launch site: PLESETSK MISSILE AND SPACE COMPLEX (PKMTR)
Your satellite tracking list
Your tracking list is empty





NASA's NSSDC Master Catalog

Two Line Element Set (TLE):
1 19554U 88092A   17080.74700154 -.00000616 +00000-0 +00000-0 0  9999
2 19554 069.8134 320.9744 5440649 150.7078 108.6262 02.00699194208494
Source of the keplerian elements: AFSPC